Retour au catalogue

SITRO-AIS-48

ActifNavigationSSO
NORAD 61771·PAYLOAD·🇷🇺 Russia
Ce nom de satellite n'a pas encore été confirmé par des sources officielles.

Lancé Nov 4, 2024 depuis Vostochny Cosmodrome

Loading…

Prochains Passages (prochaines 24 heures)

TLE

FraisSource: Space-Track

Époque: Sep 14, 2026, 10:40 UTC

1 61771U 24199AN  26257.44513504  .00059558  00000-0  55404-3 0  9998
2 61771  97.2731 135.9648 0003559 338.8014  21.3099 15.67214287148367

Suivez SITRO-AIS-48 en temps réel avec AllMySat

Download on the App Store